EW5691 Weather Reports


time (UTC)temp
C
wind
direction
speed
KPH
gust
KPH
rain 1hr
cm
rain 24hr
cm
rain mn
cm
humidity
%
barometer
mb
20260506164110 13 223 0.0 0.0 0.00 0.00 0.00 84 1021.3
20260506163836 13 222 0.0 0.0 0.00 0.00 0.00 83 1021.2
20260506163107 13 222 0.0 0.0 0.00 0.00 0.00 81 1021.2
20260506162606 13 222 0.0 0.0 0.00 0.00 0.00 82 1021.2
20260506162100 13 222 0.0 0.0 0.00 0.00 0.00 87 1021.1
20260506161601 13 222 0.0 0.0 0.00 0.00 0.00 88 1021.1
20260506161059 13 222 0.0 0.0 0.00 0.00 0.00 88 1021.1
20260506160559 13 222 0.0 0.0 0.00 0.00 0.00 88 1021.1
20260506160056 13 222 0.0 0.0 0.00 0.00 0.00 91 1021.1
20260506155557 13 222 0.0 0.0 0.00 0.00 0.00 92 1021.2
20260506155056 13 222 0.0 0.0 0.00 0.00 0.00 91 1021.2
20260506154556 13 222 0.0 0.0 0.00 0.00 0.00 92 1021.2
20260506154056 12 222 0.0 0.0 0.00 0.00 0.00 92 1021.1
20260506153555 12 222 0.0 0.0 0.00 0.00 0.00 94 1021.1
20260506153057 12 222 0.0 0.0 0.00 0.00 0.00 94 1021.0
20260506152557 12 222 0.0 0.0 0.00 0.00 0.00 94 1021.0
20260506152054 12 222 0.0 0.0 0.00 0.00 0.00 95 1021.0
20260506151553 12 222 0.0 0.0 0.00 0.00 0.00 95 1021.0
20260506151052 12 222 0.0 0.0 0.00 0.00 0.00 95 1021.0
20260506150550 12 222 0.0 0.0 0.00 0.00 0.00 95 1021.0
20260506150308 12 222 0.0 0.0 0.00 0.00 0.00 95 1021.1
20260506145547 12 222 0.0 0.0 0.00 0.00 0.00 96 1021.0
20260506145047 11 222 0.0 0.0 0.00 0.00 0.00 96 1021.0
20260506144813 11 222 0.0 0.0 0.00 0.00 0.00 96 1021.0
20260506144044 11 222 0.0 0.0 0.00 0.00 0.00 95 1021.0
20260506143545 11 222 0.0 0.0 0.00 0.00 0.00 95 1020.9
20260506143043 11 222 0.0 0.0 0.00 0.00 0.00 96 1020.9
20260506142544 11 222 0.0 0.0 0.00 0.00 0.00 96 1020.9
20260506142043 11 222 0.0 0.0 0.00 0.00 0.00 96 1020.9
20260506141545 11 222 0.0 0.0 0.00 0.00 0.00 96 1020.8
20260506141045 11 222 0.0 0.0 0.00 0.00 0.00 96 1020.8
20260506140544 11 222 0.0 0.0 0.00 0.00 0.00 96 1020.7
20260506140042 11 222 0.0 0.0 0.00 0.00 0.00 96 1020.7
20260506135541 11 222 0.0 0.0 0.00 0.00 0.00 96 1020.7
20260506135039 11 222 0.0 0.0 0.00 0.00 0.00 96 1020.6
20260506134752 11 222 0.0 0.0 0.00 0.00 0.00 96 1020.6
20260506134035 11 222 0.0 0.0 0.00 0.00 0.00 96 1020.4
20260506133532 11 222 0.0 0.0 0.00 0.00 0.00 95 1020.4
20260506133032 11 222 0.0 0.0 0.00 0.00 0.00 96 1020.4
20260506132750 11 222 0.0 0.0 0.00 0.00 0.00 95 1020.3
20260506132028 11 222 0.0 0.0 0.00 0.00 0.00 95 1020.4
20260506131526 11 222 0.0 0.0 0.00 0.00 0.00 95 1020.4
20260506131023 11 222 0.0 0.0 0.00 0.00 0.00 95 1020.4
20260506130521 11 222 0.0 0.0 0.00 0.00 0.00 95 1020.3
20260506130019 11 222 0.0 0.0 0.00 0.00 0.00 95 1020.3
20260506125737 11 222 0.0 0.0 0.00 0.00 0.00 95 1020.3
20260506125016 11 222 0.0 0.0 0.00 0.00 0.00 95 1020.2
20260506124957 11 222 0.0 0.0 0.00 0.00 0.00 95 1020.3
20260506124013 11 222 0.0 0.0 0.00 0.00 0.00 95 1020.2
20260506123510 11 222 0.0 0.0 0.00 0.00 0.00 95 1020.2
20260506123008 11 222 0.0 0.0 0.00 0.00 0.00 95 1020.1
20260506122506 11 222 0.0 0.0 0.00 0.00 0.00 95 1020.1
20260506122005 11 222 0.0 0.0 0.00 0.00 0.00 95 1020.1
20260506121507 11 222 0.0 0.0 0.00 0.00 0.00 95 1020.0
20260506121002 11 222 0.0 0.0 0.00 0.00 0.00 95 1020.0
20260506120501 11 222 0.0 0.0 0.00 0.00 0.00 95 1020.0
20260506120001 11 222 0.0 0.0 0.00 0.00 0.00 95 1020.0
20260506115502 11 222 0.0 0.0 0.00 0.00 0.00 95 1019.9
20260506115002 11 222 0.0 0.0 0.00 0.00 0.00 95 1019.9
20260506114734 11 222 0.0 0.0 0.00 0.00 0.00 95 1019.9
20260506114002 11 222 0.0 0.0 0.00 0.00 0.00 95 1019.9
20260506113502 11 222 0.0 0.0 0.00 0.00 0.00 95 1019.8
20260506113223 11 222 0.0 0.0 0.00 0.00 0.00 95 1019.8
20260506112502 11 222 0.0 0.0 0.00 0.00 0.00 95 1019.7
20260506112002 11 222 0.0 0.0 0.00 0.00 0.00 95 1019.8
20260506111502 11 222 0.0 0.0 0.00 0.00 0.00 95 1019.8
20260506111002 11 222 0.0 0.0 0.00 0.00 0.00 95 1019.8
20260506110500 11 222 0.0 0.0 0.00 0.00 0.00 95 1019.7
20260506110002 11 222 0.0 0.0 0.00 0.00 0.00 95 1019.7
20260506105456 11 222 0.0 0.0 0.00 0.00 0.00 95 1019.7
20260506104954 11 222 0.0 0.0 0.00 0.00 0.00 95 1019.6
20260506104452 11 222 0.0 0.0 0.00 0.00 0.00 95 1019.6
20260506103952 11 222 0.0 0.0 0.00 0.00 0.00 95 1019.5
20260506103450 11 222 0.0 0.0 0.00 0.00 0.00 95 1019.5
20260506102947 11 222 0.0 0.0 0.00 0.00 0.00 95 1019.4
20260506102446 11 222 0.0 0.0 0.00 0.00 0.00 95 1019.4
20260506101946 11 222 0.0 0.0 0.00 0.00 0.00 95 1019.4
20260506101444 11 222 0.0 0.0 0.00 0.00 0.00 95 1019.4
20260506100947 11 222 0.0 0.0 0.00 0.00 0.00 95 1019.4
20260506100444 11 222 0.0 0.0 0.00 0.00 0.00 95 1019.5
20260506095946 11 222 0.0 0.0 0.00 0.00 0.00 95 1019.4
20260506095710 11 222 0.0 0.0 0.00 0.00 0.00 95 1019.4
20260506094944 11 222 0.0 0.0 0.00 0.00 0.00 95 1019.4
20260506094445 11 222 0.0 0.0 0.00 0.00 0.00 95 1019.3
20260506093938 11 222 0.0 0.0 0.00 0.00 0.00 95 1019.3
20260506093438 11 222 0.0 0.0 0.00 0.00 0.00 95 1019.4
20260506092938 11 222 0.0 0.0 0.00 0.00 0.00 95 1019.3
20260506092438 11 222 0.0 0.0 0.00 0.00 0.00 95 1019.3
20260506091937 11 222 0.0 0.0 0.00 0.00 0.00 95 1019.3
20260506091436 11 222 0.0 0.0 0.00 0.00 0.00 95 1019.3
20260506090935 11 222 0.0 0.0 0.00 0.00 0.00 95 1019.4
20260506090432 11 222 0.0 0.0 0.00 0.00 0.00 95 1019.4
20260506085931 11 222 0.0 0.0 0.00 0.00 0.00 95 1019.4
20260506085431 11 222 0.0 0.0 0.00 0.03 0.00 95 1019.4
20260506084931 11 222 0.0 0.0 0.00 0.03 0.00 95 1019.4
20260506084431 11 222 0.0 0.0 0.00 0.03 0.00 95 1019.3
20260506083930 11 222 0.0 0.0 0.00 0.03 0.00 95 1019.3
20260506083430 11 222 0.0 0.0 0.00 0.03 0.00 95 1019.4
20260506083149 11 222 0.0 0.0 0.00 0.05 0.00 95 1019.4
20260506082424 11 222 0.0 0.0 0.00 0.05 0.00 95 1019.4
20260506081923 11 222 0.0 0.0 0.00 0.05 0.00 95 1019.4
20260506081639 11 222 0.0 0.0 0.00 0.05 0.00 95 1019.4
20260506081132 11 222 0.0 0.0 0.00 0.05 0.00 95 1019.4
20260506080405 11 222 0.0 0.0 0.00 0.05 0.00 95 1019.4
20260506073329 11 222 0.0 0.0 0.00 0.05 0.00 95 1019.2
20260506072829 11 222 0.0 0.0 0.00 0.05 0.00 95 1019.2
20260506072330 11 222 0.0 0.0 0.00 0.05 0.00 95 1019.1
20260506071828 11 222 0.0 0.0 0.00 0.05 0.00 95 1019.1
20260506071326 11 222 0.0 0.0 0.00 0.05 0.00 95 1019.0
20260506070828 11 222 0.0 0.0 0.00 0.05 0.00 95 1019.0
20260506070328 11 222 0.0 0.0 0.00 0.05 0.00 94 1019.0
20260506062316 11 222 0.0 0.0 0.00 0.08 0.05 95 1018.7
20260506061814 11 222 0.0 0.0 0.00 0.08 0.05 94 1018.6
20260506061315 11 222 0.0 0.0 0.00 0.08 0.05 94 1018.5
20260506060813 11 222 0.0 0.0 0.00 0.08 0.05 94 1018.5
20260506060315 11 222 0.0 0.0 0.00 0.08 0.05 94 1018.4
20260506051236 11 222 0.0 0.0 0.00 0.18 0.05 94 1018.0
20260506050734 11 222 0.0 0.0 0.00 0.18 0.05 94 1018.0
20260506050233 11 222 0.0 0.0 0.00 0.20 0.05 94 1018.0
20260506044727 11 222 0.0 0.0 0.00 0.25 0.05 94 1017.9
20260506044224 11 222 0.0 0.0 0.00 0.25 0.05 94 1017.9
20260506043721 11 222 0.0 0.0 0.00 0.25 0.05 94 1017.9
20260506043221 11 222 0.0 0.0 0.00 0.25 0.05 94 1017.7
20260506042938 11 222 0.0 0.0 0.00 0.25 0.05 94 1017.8
20260506042215 11 222 0.0 0.0 0.00 0.25 0.05 94 1017.8
20260506041714 11 222 0.0 0.0 0.00 0.28 0.05 94 1017.7
20260506041212 11 222 0.0 0.0 0.00 0.28 0.05 94 1017.6
20260506040710 11 222 0.0 0.0 0.00 0.28 0.05 94 1017.6
20260506040207 11 222 0.0 0.0 0.00 0.28 0.05 93 1017.4
20260506035706 11 222 0.0 0.0 0.00 0.33 0.05 94 1017.2
20260506035426 11 222 0.0 0.0 0.00 0.36 0.05 94 1017.2
20260506034703 11 222 0.0 0.0 0.00 0.38 0.05 94 1017.2
20260506034201 11 222 0.0 0.0 0.00 0.41 0.05 93 1017.1
20260506033658 11 222 0.0 0.0 0.00 0.43 0.05 93 1017.2
20260506033155 11 222 0.0 0.0 0.00 0.46 0.05 93 1017.2
20260506032653 11 222 0.0 0.0 0.00 0.48 0.05 93 1017.2
20260506032152 11 222 0.0 0.0 0.00 0.51 0.05 93 1017.1
20260506031651 11 222 0.0 0.0 0.00 0.53 0.05 93 1016.9
20260506031151 11 222 0.0 0.0 0.00 0.56 0.05 92 1016.9
20260506030651 11 222 0.0 0.0 0.00 0.58 0.05 92 1016.8
20260506030411 11 222 0.0 0.0 0.00 0.64 0.05 92 1016.8
20260506025645 11 222 0.0 0.0 0.00 0.69 0.05 91 1016.6
20260506025145 11 222 0.0 0.0 0.00 0.74 0.05 91 1016.4
20260506024644 12 222 0.0 0.0 0.00 0.79 0.05 91 1016.4
20260506024141 12 222 0.0 0.0 0.00 0.84 0.05 90 1016.5
20260506023637 12 222 0.0 0.0 0.00 0.89 0.05 90 1016.5
20260506023135 12 222 0.0 0.0 0.00 0.94 0.05 89 1016.4
20260506022633 12 222 0.0 0.0 0.00 0.99 0.05 89 1016.6
20260506022348 12 222 0.0 0.0 0.00 1.04 0.05 88 1016.3
20260506021846 12 222 0.0 0.0 0.00 1.07 0.05 88 1016.3
20260506021117 12 222 0.0 0.0 0.00 1.09 0.05 89 1016.3
20260506020610 12 222 0.0 0.0 0.00 1.12 0.05 90 1016.3
20260506020104 12 220 0.0 0.0 0.00 1.14 0.05 90 1016.0
20260506015558 12 220 0.0 0.0 0.00 1.14 0.05 90 1016.1
20260506015053 12 220 0.0 0.0 0.00 1.14 0.05 90 1016.3
20260506014546 12 220 0.0 0.0 0.00 1.17 0.05 90 1016.3
20260506014047 12 220 0.0 0.0 0.00 1.19 0.05 90 1016.5
20260506013815 12 220 0.0 0.0 0.00 1.22 0.05 90 1016.5
20260506013042 12 220 0.0 0.0 0.00 1.24 0.05 90 1016.5
20260506012539 12 220 0.0 0.0 0.00 1.30 0.05 90 1016.6
20260506012038 12 220 0.0 0.0 0.00 1.32 0.05 91 1016.5
20260506011537 12 220 0.0 0.0 0.00 1.40 0.05 90 1016.4
20260506011037 12 220 0.0 0.0 0.00 1.42 0.05 90 1016.4
20260506010536 12 220 0.0 0.0 0.00 1.47 0.05 91 1016.4
20260506010034 12 220 0.0 0.0 0.00 1.50 0.05 90 1016.3
20260506005531 12 220 0.0 0.0 0.00 1.50 0.05 90 1016.3
20260506005030 12 220 0.0 0.0 0.00 1.50 0.05 90 1016.2
20260506004528 12 220 0.0 0.0 0.00 1.50 0.05 90 1016.2
20260506004025 12 220 0.0 0.0 0.00 1.52 0.05 90 1016.1
20260506003523 12 220 0.0 0.0 0.00 1.55 0.05 89 1016.0
20260506003021 12 220 0.0 0.0 0.00 1.60 0.05 90 1016.0
20260506002519 12 220 0.0 0.0 0.00 1.63 0.05 90 1016.0
20260506002250 12 220 0.0 0.0 0.00 1.65 0.05 91 1016.0
20260506001516 12 220 0.0 0.0 0.00 1.65 0.05 91 1016.0
20260506001238 12 220 0.0 0.0 0.00 1.68 0.05 91 1016.0
20260506000735 12 220 0.0 0.0 0.00 1.70 0.05 90 1016.0
20260506000018 12 220 0.0 0.0 0.00 1.73 0.05 90 1016.0
20260505235515 12 220 0.0 0.0 0.00 1.73 0.05 91 1015.9
20260505235015 12 220 0.0 0.0 0.00 1.75 0.05 90 1015.9
20260505234516 12 220 0.0 0.0 0.00 1.78 0.05 89 1015.9
20260505234015 11 220 0.0 0.0 0.00 1.80 0.05 88 1015.9
20260505233516 12 220 0.0 0.0 0.00 1.83 0.05 89 1015.9
20260505233014 12 220 0.0 0.0 0.00 1.85 0.05 90 1015.8
20260505232741 11 220 0.0 0.0 0.00 1.91 0.05 90 1015.9
20260505232013 11 220 0.0 0.0 0.00 1.93 0.05 89 1015.9
20260505231514 11 220 0.0 0.0 0.00 1.96 0.05 89 1015.9
20260505231014 11 220 0.0 0.0 0.00 2.01 0.05 89 1015.9
20260505230514 11 220 0.0 0.0 0.00 2.03 0.05 90 1016.0
20260505230007 11 220 0.0 0.0 0.00 2.06 0.05 90 1015.9
20260505225501 11 220 0.0 0.0 0.00 2.08 0.05 90 1015.9
20260505224955 11 220 0.0 0.0 0.00 2.11 0.05 91 1015.9
20260505224449 11 220 0.0 0.0 0.00 2.13 0.05 91 1015.9
20260505223943 11 220 0.0 0.0 0.00 2.16 0.05 91 1015.9
20260505223704 11 220 0.0 0.0 0.00 2.21 0.05 91 1015.9
20260505222930 11 220 0.0 0.0 0.00 2.21 0.05 91 1016.0
20260505222427 11 220 0.0 0.0 0.00 2.21 0.05 91 1016.0
20260505221924 11 220 0.0 0.0 0.00 2.24 0.05 90 1016.1
20260505221424 11 220 0.0 0.0 0.00 2.24 0.05 90 1016.1
20260505221411 11 220 0.0 0.0 0.00 2.26 0.05 91 1016.1
20260505220424 11 220 0.0 0.0 0.00 2.26 0.05 90 1016.1
20260505215921 11 220 0.0 0.0 0.00 2.26 0.05 90 1016.1
20260505215420 11 220 0.0 0.0 0.00 2.26 0.05 90 1016.1
20260505214918 11 220 0.0 0.0 0.00 2.26 0.05 90 1016.2
20260505214420 11 220 0.0 0.0 0.00 2.29 0.05 90 1016.2
20260505213918 11 220 0.0 0.0 0.00 2.31 0.05 90 1016.1
20260505213646 11 221 0.0 0.0 0.00 2.31 0.05 91 1016.1
20260505212918 11 221 0.0 0.0 0.00 2.31 0.05 91 1016.2
20260505212419 11 229 0.0 0.0 0.00 2.36 0.05 91 1016.2
20260505211917 11 229 0.0 0.0 0.00 2.36 0.05 91 1016.2
20260505211419 11 203 0.0 0.0 0.00 2.36 0.05 91 1016.2
20260505210915 11 221 0.0 0.0 0.00 2.39 0.05 91 1016.2
20260505210419 11 221 0.0 0.0 0.00 2.39 0.05 91 1016.1
20260505205915 11 221 0.0 0.0 0.00 2.39 0.05 90 1016.1
20260505205418 11 222 0.0 0.0 0.00 2.41 0.05 90 1016.1
20260505204916 11 226 0.0 0.0 0.00 2.41 0.05 91 1016.1
20260505204419 11 229 0.0 0.0 0.00 2.41 0.05 90 1016.1
20260505203916 11 194 0.0 0.0 0.00 2.41 0.05 90 1016.0
20260505203418 11 194 0.0 0.0 0.00 2.44 0.05 90 1016.0
20260505202917 11 180 0.0 0.0 0.00 2.44 0.05 89 1015.9
20260505202909 11 184 0.0 0.0 0.00 2.46 0.05 88 1015.9
20260505201913 11 213 0.0 0.0 0.00 2.49 0.05 89 1016.0
20260505201419 11 214 0.0 0.0 0.00 2.51 0.05 89 1015.9
20260505201141 11 227 0.0 0.0 0.00 2.54 0.05 89 1015.9
20260505200417 11 221 0.0 0.0 0.00 2.57 0.05 88 1015.9
20260505195850 12 179 0.0 0.0 0.00 2.59 0.05 89 1015.9
20260505195345 12 179 0.0 0.0 0.00 2.64 0.05 89 1015.9
20260505194838 11 179 0.0 0.0 0.00 2.67 0.05 88 1016.0
20260505194332 11 179 0.0 0.0 0.00 2.72 0.05 89 1016.0
20260505193826 11 179 0.0 0.0 0.00 2.74 0.05 88 1016.1
20260505193320 11 178 0.0 0.0 0.00 2.79 0.05 90 1016.0
20260505192813 11 178 0.0 0.0 0.00 2.82 0.05 90 1016.0
20260505192307 11 178 0.0 0.0 0.00 2.84 0.05 90 1016.0
20260505191802 11 178 0.0 0.0 0.00 2.87 0.05 90 1016.0
20260505191258 11 178 0.0 0.0 0.00 2.87 0.05 91 1016.0
20260505190749 11 178 0.0 0.0 0.00 2.87 0.05 92 1015.9
20260505190244 11 178 0.0 0.0 0.00 2.87 0.05 91 1015.9
20260505185737 11 178 0.0 0.0 0.00 2.90 0.05 92 1015.8
20260505185237 11 178 0.0 0.0 0.00 2.90 0.05 91 1015.9
20260505184734 11 178 0.0 0.0 0.00 2.90 0.05 92 1015.9
20260505184233 11 180 0.0 0.0 0.00 2.90 0.05 93 1015.8
20260505183730 11 180 0.0 0.0 0.00 2.90 0.05 93 1015.8
20260505183228 11 180 0.0 0.0 0.00 2.90 0.05 93 1015.8
20260505182727 11 180 0.0 0.0 0.00 2.90 0.05 94 1015.8
20260505182445 11 180 0.0 0.0 0.00 2.90 0.05 94 1015.6
20260505181723 11 180 0.0 0.0 0.00 2.90 0.05 94 1015.8
20260505181220 11 180 0.0 0.0 0.00 2.90 0.05 94 1015.6
20260505180719 11 180 0.0 0.0 0.00 2.90 0.05 94 1015.5
20260505180216 11 180 0.0 0.0 0.00 2.90 0.05 94 1015.6
20260505175943 11 180 0.0 0.0 0.00 2.90 0.05 94 1015.6
20260505175212 11 180 0.0 0.0 0.00 2.90 0.05 95 1015.5
20260505174710 10 180 0.0 0.0 0.00 2.90 0.05 95 1015.4
20260505174207 10 180 0.0 0.0 0.00 2.90 0.05 95 1015.4
20260505173709 10 180 0.0 0.0 0.00 2.90 0.05 95 1015.4
20260505173208 10 180 0.0 0.0 0.00 2.90 0.05 95 1015.3
20260505172709 10 179 0.0 0.0 0.00 2.90 0.05 95 1015.3
20260505172205 10 178 0.0 0.0 0.00 2.90 0.05 95 1015.3
20260505171705 10 178 0.0 0.0 0.00 2.90 0.05 95 1015.3
20260505171203 10 178 0.0 0.0 0.00 2.92 0.05 95 1015.3
20260505170704 10 177 0.0 0.0 0.00 2.92 0.05 95 1015.3
20260505170205 10 177 0.0 0.0 0.00 2.92 0.05 95 1015.3
20260505170145 10 176 0.0 0.0 0.00 2.95 0.05 95 1015.3
20260505165205 10 176 0.0 0.0 0.00 2.95 0.05 95 1015.4
20260505164703 10 176 0.0 0.0 0.00 2.95 0.05 96 1015.3